Regional Weather Roundup
Issued by NWS

Home | Current Version | Previous Version | Graphics & Text | Print | Product List | Glossary On
Versions: 1 2 3 4 5 6 7 8 9 10 11 12 13 14 15 16 17 18 19 20 21 22 23 24 25 26 27 28 29 30 31 32 33 34 35 36 37 38 39 40 41 42 43 44 45 46 47 48 49 50
413
ASUS45 KCYS 070210
RWRWY

WYOMING REGIONAL WEATHER ROUNDUP
NATIONAL WEATHER SERVICE CHEYENNE WY
700 PM MST SAT FEB 06 2016

NOTE:  "FAIR" INDICATES FEW OR NO CLOUDS BELOW 12,000 FEET
WITH NO SIGNIFICANT WEATHER AND/OR OBSTRUCTIONS TO VISIBILITY.

WYZ001-070300-
YELLOWSTONE NATIONAL PARK

CITY           SKY/WX    TMP DP  RH WIND       PRES   REMARKS
LK YELLOWSTONE   N/A     21  15  78 VRB3      30.27R
W YELLOWSTONE  NOT AVBL

$$
WYZ002>013-054>058-071-098>099-070300-
NORTHERN WYOMING

CITY           SKY/WX    TMP DP  RH WIND       PRES   REMARKS
JACKSON        CLOUDY    30  25  80 MISG      30.31R
CODY           FAIR      41  16  36 SW20G28   30.09R
GREYBULL       FAIR      37  23  56 NW8       30.09R WCI  31
WORLAND        FAIR      36  22  56 CALM      30.10R
SHERIDAN       CLOUDY    37  18  44 NW10      30.06R WCI  30
BUFFALO        FAIR      34  24  67 N16G23    30.06R WCI  24
GILLETTE       MOCLDY    35  18  49 NW21      30.05R WCI  24
HULETT         MOCLDY    37  18  44 NW9G18    30.01R WCI  31
NEWCASTLE      FAIR      36  19  51 NW16      30.03R WCI  26

$$
WYZ014>020-022>026-101>103-070300-
CENTRAL WYOMING

CITY           SKY/WX    TMP DP  RH WIND       PRES   REMARKS
BIG PINEY      FAIR      27  17  66 N14       30.31R WCI  16
PINEDALE       FAIR      27  18  69 W15       30.31R WCI  15
DUBOIS         MOCLDY    30  18  59 NW17G28   30.21R WCI  18
LANDER         FAIR      34  20  56 SE12      30.12R WCI  25
RIVERTON       FAIR      40  18  41 NW29G35   30.13S WCI  29
CASPER         FAIR      32  22  66 SW26G37   30.09F WCI  18
DOUGLAS        FAIR      38  22  52 NW23G31     N/A  WCI  27

$$
WYZ021-027>030-104>119-070300-
SOUTHERN WYOMING

CITY           SKY/WX    TMP DP  RH WIND       PRES   REMARKS
EVANSTON       FAIR      26  11  52 SW9       30.38S WCI  17
FORT BRIDGER   CLEAR     27  18  69 W20       30.40R WCI  13
ROCK SPRINGS   FAIR      29  18  63 W23G31    30.30R WCI  15
DIXON          FAIR      20  11  67 W6        30.39R WCI  12
RAWLINS        FAIR      25  16  68 W31G39    30.23R WCI   8
SARATOGA       FAIR      30  19  64 SW17G25   30.27R WCI  18
LARAMIE        FAIR      32  15  49 W28G40    30.15R WCI  18
CHEYENNE       FAIR      38  16  40 W9        30.09R WCI  31
TORRINGTON     FAIR      41  21  44 W22G35    30.03R
PINE BLUFFS    FAIR      39  21  48 W14       30.06R WCI  31

$$




USA.gov is the U.S. government's official web portal to all federal, state and local government web resources and services.